Weather History for Shirley, NY

Change the Weather History Date:

Monday, June 10, 2013

  Actual Average (KISP) Record (KISP)
Temperature  
Mean Temperature 66 °F 67 °F  
Max Temperature 71 °F 75 °F 94 °F (2008)
Min Temperature 60 °F 59 °F 47 °F (1998)
Degree Days  
Heating Degree Days 0 2  
Month to date heating degree days 25  
Since 1 June heating degree days 25  
Since 1 July heating degree days 5415  
Cooling Degree Days 0 3  
Month to date cooling degree days 27  
Year to date cooling degree days 51  
Since 1 June cooling degree days 27  
Growing Degree Days 16 (Base 50)    
Moisture  
Dew Point 61 °F    
Average Humidity 93    
Maximum Humidity 100    
Minimum Humidity 78    
Precipitation  
Precipitation 2.06 in 0.17 in 1.48 in (2013)
Month to date precipitation 1.64  
Year to date precipitation 21.10  
Snow  
Snow 0.00 in 0.00 in - ()
Month to date snowfall 0.0  
Since 1 July snowfall 24.8  
Snow Depth -    
Sea Level Pressure  
Sea Level Pressure 30.06 in    
Wind  
Wind Speed 3 mph (ESE)    
Max Wind Speed 9 mph    
Max Gust Speed 16 mph    
Visibility 3 miles    
Events Fog , Rain    
T = Trace of Precipitation, MM = Missing Value Source: NWS Daily Summary

Daily Weather History Graph

Daily Weather History Graph

Search for Another Location

Airport:

Trip Planner

Search our weather history database for the weather conditions in past years. The results will help you decide how hot, cold, wet, or windy it might be!

Date:

Astronomy

Jun. 10, 2013 Rise Set
Actual Time 5:19 AM EDT 8:22 PM EDT
Civil Twilight 4:46 AM EDT 8:55 PM EDT
Nautical Twilight 4:03 AM EDT 9:38 PM EDT
Astronomical Twilight 3:14 AM EDT 10:28 PM EDT
Moon 7:06 AM EDT (6/10) 9:46 PM EDT (6/10)
Length of Visible Light 16h 09m
Length of Day
15h 03m
Waxing Crescent, 4% of the Moon is Illuminated
Jun 10
Waxing Crescent
Jun 16
First Quarter
Jun 23
Full
Jun 30
Last Quarter
Jul 8
New

Hourly Weather History & Observations

Time (EDT) Temp. Dew Point Humidity Pressure Visibility Wind Dir Wind Speed Gust Speed Precip Events Conditions
12:56 AM 61.0 °F 57.9 °F 90% 30.18 in 9.0 mi Calm Calm - N/A   Clear
1:56 AM 60.1 °F 57.9 °F 93% 30.17 in 7.0 mi Calm Calm - N/A   Mostly Cloudy
2:56 AM 60.1 °F 57.9 °F 93% 30.17 in 6.0 mi Calm Calm - N/A   Mostly Cloudy
3:56 AM 62.1 °F 60.1 °F 93% 30.17 in 5.0 mi Calm Calm - N/A   Mostly Cloudy
4:56 AM 62.1 °F 60.1 °F 93% 30.16 in 4.0 mi Calm Calm - N/A   Overcast
5:37 AM 62.6 °F 60.8 °F 94% 30.16 in 2.5 mi Calm Calm - N/A   Mostly Cloudy
5:56 AM 62.1 °F 60.1 °F 93% 30.17 in 2.5 mi Calm Calm - N/A   Partly Cloudy
6:30 AM 62.6 °F 62.6 °F 100% 30.17 in 3.0 mi Calm Calm - N/A   Scattered Clouds
6:56 AM 64.0 °F 62.1 °F 93% 30.17 in 3.0 mi Calm Calm - N/A   Mostly Cloudy
7:56 AM 66.9 °F 64.0 °F 90% 30.16 in 4.0 mi SSE 6.9 mph - N/A   Scattered Clouds
8:18 AM 66.2 °F 64.4 °F 94% 30.16 in 5.0 mi SSE 6.9 mph - N/A   Partly Cloudy
8:56 AM 66.9 °F 63.0 °F 87% 30.16 in 5.0 mi SE 5.8 mph - N/A   Clear
9:56 AM 70.0 °F 64.0 °F 81% 30.16 in 8.0 mi SE 4.6 mph - N/A   Scattered Clouds
10:56 AM 71.1 °F 64.0 °F 78% 30.15 in 9.0 mi ESE 6.9 mph - N/A   Mostly Cloudy
11:56 AM 70.0 °F 63.0 °F 78% 30.14 in 8.0 mi Variable 4.6 mph - 0.00 in   Mostly Cloudy
12:56 PM 66.9 °F 62.1 °F 84% 30.14 in 6.0 mi ESE 5.8 mph - 0.01 in Rain Light Rain
1:44 PM 66.2 °F 62.6 °F 88% 30.13 in 2.5 mi SE 8.1 mph - 0.05 in Rain Rain
1:56 PM 64.9 °F 62.1 °F 90% 30.12 in 2.5 mi SE 6.9 mph - 0.08 in Rain Rain
2:46 PM 64.4 °F 62.6 °F 94% 30.10 in 1.5 mi ESE 6.9 mph - 0.19 in Rain Rain
2:56 PM 64.0 °F 62.1 °F 93% 30.11 in 1.5 mi SE 6.9 mph - 0.23 in Rain Heavy Rain
3:09 PM 64.4 °F 62.6 °F 94% 30.09 in 1.8 mi Variable 5.8 mph - 0.04 in Rain Rain
3:22 PM 64.4 °F 62.6 °F 94% 30.09 in 1.0 mi Variable 6.9 mph - 0.14 in Rain Heavy Rain
3:54 PM 62.6 °F 60.8 °F 94% 30.08 in 1.2 mi ESE 8.1 mph - 0.46 in Rain Heavy Rain
3:56 PM 63.0 °F 61.0 °F 93% 30.08 in 1.0 mi ESE 8.1 mph - 0.49 in Rain Heavy Rain
4:00 PM 62.6 °F 60.8 °F 94% 30.07 in 0.8 mi ESE 6.9 mph - 0.06 in Rain Heavy Rain
4:06 PM 62.6 °F 60.8 °F 94% 30.07 in 1.0 mi East 6.9 mph - 0.12 in Rain Heavy Rain
4:50 PM 62.6 °F 60.8 °F 94% 30.04 in 2.0 mi East 8.1 mph - 0.34 in Rain Light Rain
4:56 PM 62.1 °F 61.0 °F 96% 30.04 in 2.0 mi East 6.9 mph - 0.34 in Rain Light Rain
5:33 PM 62.6 °F 60.8 °F 94% 30.02 in 4.0 mi ESE 8.1 mph - 0.03 in Rain Light Rain
5:56 PM 62.1 °F 60.1 °F 93% 30.01 in 1.8 mi East 9.2 mph - 0.05 in Rain Light Rain
6:03 PM 62.6 °F 60.8 °F 94% 30.00 in 2.0 mi East 6.9 mph - 0.01 in Rain Light Rain
6:11 PM 62.6 °F 60.8 °F 94% 30.00 in 1.0 mi Variable 4.6 mph - 0.09 in Rain Heavy Rain
6:34 PM 60.8 °F 60.8 °F 100% 30.00 in 2.5 mi Variable 6.9 mph - 0.17 in Rain Light Rain
6:46 PM 60.8 °F 60.8 °F 100% 29.99 in 1.5 mi East 5.8 mph - 0.24 in Rain Heavy Rain
6:56 PM 61.0 °F 60.1 °F 97% 30.00 in 1.8 mi East 5.8 mph - 0.28 in Rain Rain
7:08 PM 60.8 °F 59.0 °F 94% 29.99 in 0.8 mi East 9.2 mph 16.1 mph 0.25 in Rain Heavy Rain
7:17 PM 60.8 °F 59.0 °F 94% 29.99 in 1.8 mi East 8.1 mph - 0.28 in Rain Light Rain
7:30 PM 60.8 °F 59.0 °F 94% 29.98 in 3.0 mi Variable 5.8 mph - 0.30 in Rain Light Rain
7:56 PM 61.0 °F 60.1 °F 97% 29.97 in 2.5 mi Variable 4.6 mph - 0.39 in Rain Heavy Rain
8:11 PM 60.8 °F 60.8 °F 100% 29.96 in 3.0 mi Variable 5.8 mph - 0.05 in Rain Rain
8:56 PM 61.0 °F 60.1 °F 97% 29.95 in 8.0 mi Variable 4.6 mph - 0.13 in Rain Light Rain
9:56 PM 61.0 °F 60.1 °F 97% 29.93 in 6.0 mi Variable 4.6 mph - 0.05 in Rain Light Rain
10:24 PM 60.8 °F 60.8 °F 100% 29.93 in 2.5 mi Calm Calm - 0.01 in Rain Light Rain
10:43 PM 62.6 °F 60.8 °F 94% 29.91 in 1.5 mi Calm Calm - 0.01 in   Overcast
10:56 PM 62.1 °F 62.1 °F 100% 29.91 in 1.2 mi Calm Calm - 0.01 in   Overcast
11:19 PM 62.6 °F 62.6 °F 100% 29.90 in 0.8 mi Calm Calm - N/A   Mist
11:56 PM 64.0 °F 63.0 °F 96% 29.88 in 0.5 mi South 4.6 mph - N/A Fog Fog